www.pogodaiklimat.ru
ПОГОДА в Ашленде
Время
и дата
21:30 21.05
21:39 21.05
21:50 21.05
21:54 21.05
22:54 21.05
23:54 21.05
00:54 22.05
01:54 22.05
02:54 22.05
03:54 22.05
04:54 22.05
05:54 22.05
06:54 22.05
07:54 22.05
08:54 22.05
09:54 22.05
10:54 22.05
11:54 22.05
12:54 22.05
13:54 22.05
14:54 22.05
15:54 22.05
16:54 22.05
17:54 22.05
18:54 22.05
19:54 22.05
20:54 22.05
21:54 22.05
22:54 22.05
23:54 22.05
00:54 23.05
01:54 23.05
02:54 23.05
03:54 23.05
04:54 23.05
05:54 23.05
06:54 23.05
07:54 23.05
08:54 23.05
09:54 23.05
10:54 23.05
11:54 23.05
12:54 23.05
13:54 23.05
14:54 23.05
15:54 23.05
16:54 23.05
17:54 23.05
Ветер
(напр.,м/с)
Видим. Явления Облачность Т
(С)
Тd
(С)
f
(%)
Тe
(С)
Тes
(С)
Комфортность P
(гПа)
Po
(гПа)
Тmin
(С)
Tmax
(С)
R
(мм)
R24
(мм)
S
(см)
ЮВ 2 5 км гроза с сильным дождем 10/10 1230 м +22.8 +20.0 84 +29 +29 очень
душно
1014.4
ЮВ 1 6 км гроза, сильный дождь, дымка 10/10 1410 м +22.8 +20.6 87 +30 +30 очень
душно
1014.4
Ю 2 8 км дождь, дымка 8/8 1410 м
[Ac]
+23.0 +21.0 89 +31 +31 очень
душно
1014.4
Ю 2 10 км слабый дождь, дымка 10/5 1470 м
[Ac]
+22.8 +21.1 90 +30 +30 очень
душно
1021.6 1014.4 4.1
Ю 1 16 км слабый дождь 8/0 2100 м
[Ac]
+22.8 +21.1 90 +30 +30 очень
душно
1020.6 1013.4
Ю 2 16 км ясно +22.2 +20.6 91 +29 +29 очень
душно
1019.2 1012.0
Ю 2 16 км ясно +22.2 +20.0 87 +28 +28 душно 1018.8 1011.7 +22.2 +31.1 4.6
Ю 1 16 км ясно +21.7 +20.0 90 +27 +27 душно 1019.0 1011.7
Ю 1 16 км ясно +22.2 +18.9 82 +28 +28 душно 1018.6 1011.4
Ю 1 16 км ясно +21.1 +18.9 87 +25 +25 комфорт 1018.7 1011.4
Ю 1 16 км ясно +21.1 +18.9 87 +25 +25 комфорт 1018.7 1011.4
Ю 1 16 км ясно +21.7 +19.4 87 +27 +27 душно 1019.2 1012.0
ЮЗ 2 16 км ясно +23.9 +20.0 79 +29 +30 душно 1019.3 1012.0 +21.1 +23.9 4.6
ЮЗ 2 16 км 2/2 540 м +24.4 +20.6 79 +30 +32 очень
душно
1019.8 1012.4
ЮЗ 3 16 км ясно +25.6 +20.6 74 +32 +35 очень
душно
1019.6 1012.4
ЮЗ 2 16 км 2/2 690 м +27.8 +21.1 67 +35 +40 очень
душно
1019.5 1012.4
Ю 2 16 км ясно +28.9 +21.7 65 +37 +45 очень
душно
1018.9 1011.7
нст 1 16 км 2/2 1050 м +30.0 +21.7 61 +38 +53 опасность
солнечного
удара
1018.3 1011.0
ЮЗ 2
{4}
16 км 2/2 1110 м +31.1 +22.2 59 +40 +51 опасность
солнечного
удара
1017.8 1010.4 +23.9 +31.7
ЮЗ 2 16 км ясно +31.7 +22.2 57 +41 +54 опасность
перегрева
1017.5 1010.4
З 2 16 км ясно +32.2 +21.1 52 +40 +51 опасность
солнечного
удара
1016.6 1009.4
Ю 3
{4}
16 км 2/2 1500 м +32.2 +20.6 50 +39 +43 очень
душно
1016.0 1008.7
ЮЗ 3 16 км ясно +31.7 +20.0 50 +38 +41 очень
душно
1016.2 1009.0
ЮЗ 2
{4}
16 км ясно +30.6 +20.6 55 +38 +40 очень
душно
1016.6 1009.4
З 3
{4}
16 км 5/2 1800 м
[Ac]
+28.9 +19.4 57 +35 +35 очень
душно
1017.8 1010.7 +28.9 +32.8
З 1 16 км ясно +26.7 +17.2 56 +31 +31 душно 1019.2 1012.0
СЗ 1 16 км 8/0 2550 м
[Ac]
+25.6 +17.2 60 +30 +30 душно 1019.9 1012.7
штиль 0 16 км ясно +23.9 +18.3 71 +28 +28 душно 1020.2 1013.1
штиль 0 16 км ясно +22.2 +18.3 79 +27 +27 душно 1019.9 1012.7
штиль 0 16 км ясно +22.2 +18.3 79 +27 +27 душно 1020.0 1012.7
штиль 0 16 км ясно +22.2 +18.3 79 +27 +27 душно 1019.9 1012.7 +21.1 +28.9
штиль 0 16 км ясно +21.1 +18.3 84 +25 +25 комфорт 1019.9 1012.7
штиль 0 16 км ясно +20.6 +18.3 87 +24 +24 комфорт 1019.9 1012.7
нст 1 16 км ясно +21.1 +17.8 81 +25 +25 комфорт 1020.3 1013.1
С 2 16 км ясно +20.0 +15.0 73 +22 +22 комфорт 1021.2 1013.7
нст 1 16 км ясно +19.4 +13.9 70 +21 +21 комфорт 1021.9 1014.7
С 2 16 км ясно +19.4 +13.3 68 +21 +21 комфорт 1022.4 1015.1 +18.3 +22.2
С 2 16 км 2/2 1200 м +20.0 +13.9 68 +22 +24 комфорт 1023.0 1015.7
нст 1 16 км 8/8 1230 м +20.6 +14.4 68 +24 +25 комфорт 1023.4 1016.1
СВ 2 16 км 8/8 1650 м +21.1 +14.4 66 +24 +25 комфорт 1023.6 1016.1
нст 1 16 км 5/5 870 м +23.3 +15.0 60 +27 +35 душно 1023.3 1015.7
штиль 0 16 км 10/10 1020 м +22.8 +15.0 61 +27 +27 душно 1023.3 1015.7
СВ 1 16 км 10/10 1050 м +22.8 +14.4 59 +26 +26 жарко 1022.6 1015.1 +19.4 +23.9
СВ 1 16 км 10/10 1020 м +22.2 +15.0 64 +26 +26 душно 1022.7 1015.4
штиль 0 5 км сильный дождь 10/10 1140 м +20.6 +16.1 75 +23 +23 комфорт 1022.2 1014.7
С 1 16 км 2/2 1410 м
[Ac]
+20.0 +16.1 78 +23 +31 комфорт 1021.1 1013.7 0.5
нст 1 16 км 10/10 1320 м +20.0 +15.0 73 +23 +23 комфорт 1022.0 1014.7
нст 1 13 км слабый дождь 10/8 1500 м
[Ac]
+17.8 +15.0 84 +18 +19 1022.7 1015.4
Местоположение метеостанции Hanover County Municipal Airport: широта 37.7081 долгота -77.4344 высота над уровнем моря 62 м.
В архиве по умолчанию представлена погода в Ашленде за последние 1-2 суток. Обновление информации о фактической погоде в базе происходит ежечасно! Архивные данные за месяц целиком и за предыдущие месяцы Вы можете получить, выбрав интересующий диапазон дат из раскрывающегося списка и нажав кнопку "Ввод!".
Внимание! Архив погоды МЕТАР в базе сайта по станциям, не включенным в климатический монитор, хранится не более 60 дней. Нет смысла пытаться выбрать более раннюю дату.
*Определитесь, кто Вы:
Внимание! Время в таблицах - местное (без учета летнего времени). Для получения всемирного времени необходимо вычесть поправку, которая равна -5 ч.
Смотрите также архив погоды в соседних городах и на ближайших метеорологических станциях:
Партнеры нашего сайта:      
Пояснения к столбцам:
  • Ветер - указаны скорость ветра в м/с - средняя за 10 мин, порывы в срок и между сроками (в фигурных скобках) и направление, откуда дует ветер: С - северный,
  • СВ - северо-восточный, В - восточный, ЮВ - юго-восточный, Ю - южный, ЮЗ - юго-западный, З - западный, СЗ - северо-западный.
  • Видимость - горизонтальная дальность видимости в метрах или километрах. При видимости от 1 до 10 км при отсутствии осадков обычно наблюдается дымка, при ухудшении видимости до 1 км и менее - туман. В сухую погоду видимость может ухудшаться дымом, пылью или мглою.
  • Явления - указаны атмосферные явления, наблюдавшиеся в срок или в последний час перед сроком; фигурными скобками обозначены явления, наблюдавшиеся между сроками (за 1-3 часа до срока); квадратными скобками обозначены град или гололедные отложения с указанием их диаметра в мм.
  • Облачность - указаны через наклонную черту общая и нижняя облачность в баллах и высота нижней границы облаков в метрах; квадратными скобками обозначены формы облаков: Ci - перистые, Cs - перисто-слоистые, Cc - перисто-кучевые, Ac - высококучевые, As - высокослоистые, Sc - слоисто-кучевые, Ns - слоисто-дождевые, Cu - кучевые, Cb - кучево-дождевые. Подробнее классификацию облаков см. в Атласе облаков (PDF).
  • T - Температура воздуха - температура, измеренная на высоте 2 м над землей.
  • Td - Температура точки росы - температура, при понижении до которой содержащийся в воздухе водяной пар достигнет насыщения.
  • f - Относительная влажность воздуха - влажноcть воздуха, измеренная на высоте 2 м над землей.
  • Te - Эффективная температура - температура, которую ощущает одетый по сезону человек в тени. Характеристика душности погоды. При расчете учитывается влияние влажности воздуха и скорости ветра на теплоощущения человека.
  • Tes - Эффективная температура на солнце - температура, которую ощущает человек, с поправкой на солнечный нагрев. Характеристика знойности погоды. Зависит от высоты солнца над горизонтом, облачности и скорости ветра. Ночью, в пасмурную погоду, а также при ветре 12 м/с и более поправка равна нулю.
  • P - Атмосферное давление - приведенное к уровню моря атмосферное давление.
  • Po - Атмосферное давление - измеренное на уровне метеостанции атмосферное давление.
  • Tmin - Минимальная температура - минимум температуры воздуха на высоте 2 м над землей.
  • Tmax - Максимальная температура - максимум температуры воздуха на высоте 2 м над землей.
  • R - Количество осадков - Количество выпавших осадков за период времени, мм. При наведении курсора мыши на число - период времени, за который выпало указанное количество осадков.
  • R24 - Количество осадков - Количество выпавших осадков за 24 часа, мм.
  • S - Снежный покров - Высота снежного покрова, см. При наведении курсора мыши на число - состояние снежного покрова и степень покрытия местности в баллах.